Location: Krakow
(50.0830°N, 19.9170°E)
Time: 19:43:45
(UTC+01:00)

Vanguard 2 - All Passes

Search period start: 01 December 2023 00:00
Search period end: 11 December 2023 00:00
Orbit: 553 x 2923 km, 32.9° (Epoch: 30 November)

Date Brightness Start Highest point End Pass type
(mag) Time Alt. Az. Time Alt. Az. Time Alt. Az.
01 Dec - 00:00:18 10° SW 00:10:38 29° S 00:17:41 10° SE night (unlit)
01 Dec - 02:11:54 10° WSW 02:18:16 19° SSW 02:23:02 10° SSE night (unlit)
01 Dec - 19:58:56 10° S 20:08:00 17° SSE 20:15:42 10° ESE visible
01 Dec - 22:05:12 10° SW 22:17:10 29° S 22:25:51 10° ESE visible
02 Dec - 00:15:30 10° WSW 00:25:54 29° S 00:32:59 10° SE night (unlit)
02 Dec - 02:27:47 10° WSW 02:33:19 17° SSW 02:37:38 10° S night (unlit)
02 Dec - 20:12:09 10° SSW 20:23:12 22° SSE 20:32:16 10° ESE visible
02 Dec - 22:19:55 10° SW 22:32:29 31° S 22:41:26 10° ESE visible
03 Dec - 00:30:50 10° WSW 00:41:07 29° SSW 00:48:11 10° SE night (unlit)
03 Dec - 02:44:03 10° WSW 02:48:17 14° SW 02:51:47 10° S night (unlit)
03 Dec - 18:24:52 10° SSE 18:29:19 11° SE 18:33:35 10° SE visible
03 Dec - 20:25:58 10° SSW 20:38:26 26° SSE 20:48:22 10° ESE visible
03 Dec - 22:34:50 10° SW 22:47:47 34° S 22:56:53 10° ESE visible
04 Dec - 00:46:17 10° WSW 00:56:17 27° SSW 01:03:14 10° SE night (unlit)
04 Dec - 03:01:34 10° SW 03:03:10 11° SW 03:04:39 10° SSW night (unlit)
04 Dec - 18:35:38 10° S 18:44:21 16° SE 18:52:20 10° ESE visible
04 Dec - 20:40:12 10° SW 20:53:39 30° SSE 21:04:11 10° ESE visible
04 Dec - 22:49:55 10° WSW 23:03:05 35° S 23:12:15 10° ESE visible
05 Dec - 01:01:52 10° WSW 01:11:22 25° SSW 01:18:07 10° SSE night (unlit)
05 Dec - 18:48:21 10° S 18:59:24 21° SSE 19:09:18 10° ESE visible
05 Dec - 20:54:44 10° SW 21:08:55 33° SSE 21:19:50 10° ESE visible
05 Dec - 23:05:07 10° WSW 23:18:19 35° S 23:27:30 10° SE visible
06 Dec - 01:17:37 10° WSW 01:26:23 22° SSW 01:32:47 10° SSE night (unlit)
06 Dec - 19:01:52 10° SSW 19:14:28 25° SSE 19:25:37 10° ESE visible
06 Dec - 21:09:30 10° SW 21:24:10 36° S 21:35:21 10° ESE visible
06 Dec - 23:20:27 10° WSW 23:33:31 34° SSW 23:42:40 10° SE visible
07 Dec - 01:33:37 10° WSW 01:41:17 19° SW 01:47:09 10° S night (unlit)
07 Dec - 17:14:01 10° SSE 17:20:33 13° SE 17:27:00 10° ESE visible
07 Dec - 19:15:51 10° SSW 19:29:35 29° SSE 19:41:35 10° ESE visible
07 Dec - 21:24:27 10° SW 21:39:26 38° S 21:50:46 10° ESE visible
07 Dec - 23:35:53 10° WSW 23:48:39 32° SSW 23:57:41 10° SE visible
08 Dec - 01:50:03 10° WSW 01:56:06 15° SW 02:01:02 10° S night (unlit)
08 Dec - 17:25:45 10° S 17:35:25 18° SE 17:44:53 10° ESE visible
08 Dec - 19:30:12 10° SW 19:44:44 33° SSE 19:57:20 10° ESE visible
08 Dec - 21:39:34 10° WSW 21:54:40 39° S 22:06:05 10° ESE visible
08 Dec - 23:51:26 10° WSW 00:03:42 30° SSW 00:12:34 10° SSE visible
09 Dec - 02:07:33 10° WSW 02:10:50 11° SW 02:13:48 10° SSW night (unlit)
09 Dec - 17:38:48 10° S 17:50:19 22° SE 18:01:38 10° ESE visible
09 Dec - 19:44:49 10° SW 19:59:54 36° SSE 20:12:56 10° ESE visible
09 Dec - 21:54:47 10° WSW 22:09:53 39° S 22:21:19 10° SE visible
10 Dec - 00:07:07 10° WSW 00:18:41 27° SSW 00:27:14 10° SSE visible
10 Dec - 17:52:29 10° SSW 18:05:15 27° SSE 18:17:50 10° ESE visible
10 Dec - 19:59:39 10° SW 20:15:06 39° S 20:28:24 10° ESE visible
10 Dec - 22:10:06 10° WSW 22:25:04 38° SSW 22:36:26 10° SE visible
